FW8830 Weather Reports


time (UTC)temp
F
wind
direction
speed
knots
gust
knots
rain 1hr
in
rain 24hr
in
rain mn
in
humidity
%
barometer
mb
20260507041504 49 298 0.0 0.0 0.00 0.20 0.00 92 1011.0
20260507041004 49 298 0.0 0.0 0.00 0.20 0.00 92 1011.0
20260507040504 49 298 0.0 0.9 0.00 0.20 0.00 92 1011.0
20260507040004 49 298 0.9 1.7 0.00 0.20 0.00 92 1010.8
20260507035004 49 41 0.0 0.0 0.00 0.20 0.20 92 1010.8
20260507034503 49 41 0.0 1.7 0.00 0.20 0.20 92 1011.0
20260507034004 50 348 0.0 0.0 0.00 0.20 0.20 92 1011.1
20260507033504 50 348 0.0 0.0 0.00 0.20 0.20 92 1011.1
20260507033004 50 348 0.0 0.0 0.00 0.20 0.20 92 1011.1
20260507032504 50 348 0.0 0.0 0.00 0.20 0.20 92 1011.2
20260507032004 50 348 0.9 0.9 0.00 0.20 0.20 91 1011.1
20260507031504 50 305 0.0 1.7 0.00 0.20 0.20 91 1011.1
20260507025504 50 36 0.9 0.9 0.00 0.20 0.20 90 1010.6
20260507024003 51 36 0.0 0.0 0.00 0.20 0.20 89 1010.9
20260507023504 51 36 0.0 0.0 0.00 0.20 0.20 88 1010.7
20260507023004 52 36 0.0 0.0 0.00 0.20 0.20 88 1010.6
20260507022503 52 36 0.0 0.0 0.00 0.20 0.20 88 1010.8
20260507022004 52 36 0.0 0.0 0.00 0.20 0.20 88 1011.0
20260507021503 52 36 0.0 0.0 0.00 0.20 0.20 88 1011.1
20260507021005 52 36 0.0 0.9 0.00 0.20 0.20 88 1011.3
20260507020504 52 36 0.9 1.7 0.00 0.20 0.20 89 1011.1
20260507020004 52 36 0.0 0.0 0.00 0.20 0.20 88 1011.3
20260507015504 52 36 0.0 0.0 0.00 0.20 0.20 88 1011.4
20260507015004 52 36 0.0 0.0 0.00 0.20 0.20 87 1011.3
20260507014504 52 36 0.0 0.0 0.00 0.20 0.20 87 1011.2
20260507014004 52 36 0.0 0.0 0.00 0.20 0.20 86 1011.3
20260507013504 52 36 0.0 0.0 0.00 0.20 0.20 86 1011.3
20260507013004 52 36 0.0 0.0 0.00 0.20 0.20 86 1011.0
20260507012504 52 36 0.0 0.0 0.00 0.20 0.20 87 1011.0
20260507012003 52 36 0.0 0.9 0.00 0.20 0.20 86 1011.0
20260507011504 52 36 0.0 0.0 0.00 0.20 0.20 86 1011.4
20260507011004 53 36 0.0 0.9 0.00 0.20 0.20 86 1011.4
20260507010504 53 36 0.0 0.0 0.00 0.20 0.20 85 1011.3
20260507010004 53 36 0.0 0.0 0.00 0.20 0.20 85 1011.1
20260507005504 53 36 0.0 1.7 0.00 0.20 0.20 85 1010.9
20260507005004 53 36 0.0 0.9 0.00 0.20 0.20 86 1010.9
20260507004504 53 36 0.0 0.9 0.00 0.20 0.20 86 1010.9
20260507004004 53 36 0.0 0.0 0.00 0.20 0.20 86 1010.7
20260507003504 53 36 0.0 0.9 0.00 0.20 0.20 85 1010.6
20260507003004 53 32 0.9 1.7 0.00 0.20 0.20 85 1010.5
20260507002503 53 55 0.0 0.0 0.00 0.20 0.20 86 1010.4
20260507002004 53 55 0.0 0.0 0.00 0.20 0.20 86 1010.3
20260507001504 53 55 0.0 0.9 0.00 0.20 0.20 85 1010.2
20260507001004 53 55 0.9 1.7 0.00 0.20 0.20 85 1010.2
20260507000505 53 55 0.0 2.6 0.00 0.20 0.20 85 1010.0
20260507000004 53 52 0.9 2.6 0.00 0.20 0.20 85 1009.8
20260506235503 53 45 1.7 2.6 0.00 0.20 0.20 85 1009.7
20260506235003 53 51 0.9 2.6 0.00 0.20 0.20 85 1009.7
20260506234004 53 50 0.9 2.6 0.00 0.20 0.20 85 1009.6
20260506233503 53 53 0.0 0.0 0.00 0.20 0.20 85 1009.4
20260506232504 54 53 1.7 2.6 0.00 0.20 0.20 85 1009.4
20260506232004 54 79 0.9 2.6 0.00 0.20 0.20 86 1009.4
20260506231003 54 48 0.0 2.6 0.00 0.20 0.20 84 1009.4
20260506230504 54 41 1.7 4.3 0.00 0.20 0.20 85 1009.2
20260506230004 54 51 1.7 7.0 0.00 0.20 0.20 84 1009.3
20260506225003 54 40 0.9 2.6 0.00 0.20 0.20 85 1009.0
20260506224504 54 27 2.6 5.2 0.00 0.20 0.20 85 1009.0
20260506224004 55 40 0.9 2.6 0.00 0.20 0.20 86 1009.0
20260506223504 55 44 0.0 1.7 0.00 0.20 0.20 87 1009.1
20260506223003 55 44 0.0 2.6 0.00 0.20 0.20 87 1009.0
20260506222504 55 292 0.0 0.0 0.00 0.20 0.20 86 1009.0
20260506222003 55 292 0.0 0.9 0.00 0.20 0.20 87 1008.9
20260506221503 55 292 0.0 1.7 0.00 0.20 0.20 87 1008.8
20260506221003 55 288 0.0 1.7 0.00 0.20 0.20 87 1008.7
20260506220506 55 54 0.0 0.9 0.00 0.20 0.20 87 1008.6
20260506215004 55 32 1.7 2.6 0.01 0.20 0.20 87 1008.4
20260506214504 56 31 0.0 2.6 0.01 0.20 0.20 87 1008.1
20260506214004 56 1 0.9 2.6 0.01 0.20 0.20 87 1008.0
20260506213504 56 17 0.0 2.6 0.01 0.20 0.20 87 1007.8
20260506213004 56 290 0.9 1.7 0.02 0.20 0.20 87 1007.6
20260506212504 56 12 0.0 1.7 0.02 0.20 0.20 88 1007.5
20260506212004 56 68 0.9 2.6 0.02 0.20 0.20 88 1007.6
20260506211503 56 38 0.9 2.6 0.02 0.20 0.20 88 1007.4
20260506211003 57 84 0.0 1.7 0.02 0.20 0.20 88 1007.3
20260506210504 57 87 0.0 1.7 0.02 0.20 0.20 89 1007.3
20260506205003 58 295 0.9 2.6 0.01 0.19 0.19 87 1007.0
20260506204504 58 244 0.9 2.6 0.01 0.19 0.19 87 1006.9
20260506204003 59 258 0.9 2.6 0.01 0.19 0.19 86 1006.6
20260506203004 60 345 1.7 6.1 0.01 0.19 0.19 85 1006.1
20260506202503 61 347 0.0 6.1 0.00 0.18 0.18 83 1006.0
20260506202003 62 346 0.9 2.6 0.00 0.18 0.18 83 1005.8
20260506201504 63 316 2.6 14.8 0.00 0.18 0.18 83 1005.8
20260506201004 63 270 2.6 7.0 0.00 0.18 0.18 85 1005.5
20260506200504 63 223 1.7 5.2 0.00 0.18 0.18 85 1005.3
20260506200004 63 232 1.7 4.3 0.00 0.18 0.18 85 1005.3
20260506195504 63 220 1.7 2.6 0.00 0.18 0.18 86 1005.2
20260506195004 63 256 1.7 4.3 0.00 0.18 0.18 87 1005.3
20260506194504 63 262 0.9 2.6 0.00 0.18 0.18 88 1005.3
20260506194004 63 269 1.7 7.8 0.00 0.18 0.18 88 1005.4
20260506192004 63 290 0.9 2.6 0.00 0.18 0.18 88 1005.4
20260506191504 63 274 0.9 2.6 0.00 0.18 0.18 89 1005.3
20260506191004 63 261 0.0 2.6 0.00 0.18 0.18 89 1005.2
20260506190004 63 265 0.9 4.3 0.00 0.18 0.18 88 1005.4
20260506185504 63 236 0.9 2.6 0.00 0.18 0.18 88 1005.4
20260506185003 63 232 0.9 2.6 0.00 0.18 0.18 88 1005.3
20260506184004 63 211 0.0 0.0 0.00 0.18 0.18 88 1005.3
20260506182504 63 211 0.0 0.0 0.00 0.18 0.18 88 1005.2
20260506182004 63 211 0.0 0.0 0.00 0.18 0.18 88 1005.2
20260506181503 63 211 0.0 0.0 0.00 0.18 0.18 88 1005.2
20260506181004 63 211 0.0 0.0 0.00 0.18 0.18 88 1005.2
20260506180504 63 211 0.0 0.9 0.00 0.18 0.18 87 1005.2
20260506180005 63 211 0.9 1.7 0.00 0.18 0.18 87 1005.2
20260506175003 63 211 0.0 1.7 0.00 0.18 0.18 87 1005.2
20260506174504 62 296 0.9 2.6 0.00 0.18 0.18 88 1005.2
20260506174004 62 198 0.9 2.6 0.00 0.18 0.18 88 1005.2
20260506173004 62 232 1.7 2.6 0.00 0.18 0.18 88 1005.3
20260506172504 62 171 0.9 2.6 0.00 0.18 0.18 89 1005.3
20260506172004 62 215 1.7 2.6 0.00 0.18 0.18 89 1005.3
20260506171504 62 249 0.9 2.6 0.00 0.18 0.18 89 1005.2
20260506171004 62 219 0.0 1.7 0.00 0.18 0.18 89 1005.3
20260506170504 61 163 0.9 1.7 0.00 0.18 0.18 90 1005.4
20260506165004 61 246 0.9 2.6 0.00 0.18 0.18 90 1005.6
20260506164504 61 213 1.7 2.6 0.00 0.18 0.18 90 1005.5
20260506164004 61 240 1.7 5.2 0.00 0.18 0.18 90 1005.5
20260506163504 60 290 0.9 2.6 0.00 0.18 0.18 91 1005.6
20260506162504 60 290 0.0 1.7 0.00 0.18 0.18 92 1005.7
20260506161503 60 288 0.0 0.9 0.00 0.18 0.18 92 1005.7
20260506160003 59 304 0.9 2.6 0.00 0.18 0.18 93 1005.7
20260506155504 59 244 0.9 2.6 0.00 0.18 0.18 92 1005.8
20260506155004 59 205 0.9 2.6 0.00 0.18 0.18 93 1005.7
20260506154504 59 223 1.7 4.3 0.01 0.18 0.18 93 1005.7
20260506154004 59 238 0.0 1.7 0.01 0.18 0.18 94 1005.7
20260506153503 58 238 0.0 1.7 0.02 0.18 0.18 94 1005.7
20260506153004 59 227 0.0 1.7 0.02 0.18 0.18 95 1005.6
20260506152504 58 227 0.0 0.0 0.02 0.18 0.18 94 1005.5
20260506152004 58 227 0.0 0.9 0.02 0.18 0.18 94 1005.4
20260506151504 58 228 0.9 1.7 0.02 0.18 0.18 94 1005.4
20260506151004 58 44 0.9 2.6 0.02 0.18 0.18 95 1005.4
20260506150504 58 44 0.9 1.7 0.02 0.18 0.18 95 1005.5
20260506150004 58 39 0.0 0.9 0.03 0.18 0.18 95 1005.5
20260506145504 58 302 1.7 5.2 0.03 0.18 0.18 94 1005.6
20260506144503 58 268 1.7 4.3 0.03 0.17 0.17 94 1005.7
20260506144004 58 38 0.9 2.6 0.03 0.17 0.17 95 1005.5
20260506143004 58 34 0.0 2.6 0.02 0.16 0.16 95 1005.5
20260506142504 58 41 0.9 2.6 0.02 0.16 0.16 95 1005.4
20260506142004 58 336 0.0 0.9 0.02 0.16 0.16 94 1005.4
20260506141504 59 336 0.0 0.9 0.02 0.16 0.16 94 1005.6
20260506141004 58 336 0.0 0.9 0.02 0.16 0.16 95 1005.5
20260506140505 58 336 0.0 0.9 0.02 0.16 0.16 95 1005.4
20260506140004 58 336 0.0 2.6 0.02 0.15 0.15 95 1005.4
20260506135504 58 0 0.9 1.7 0.02 0.15 0.15 95 1005.6
20260506135004 58 47 0.0 1.7 0.02 0.14 0.14 95 1005.6
20260506134505 58 327 0.0 2.6 0.02 0.14 0.14 95 1005.6
20260506134004 58 290 0.9 2.6 0.02 0.14 0.14 95 1005.8
20260506133504 58 63 2.6 5.2 0.03 0.14 0.14 95 1005.6
20260506133004 58 153 0.9 1.7 0.04 0.14 0.14 96 1005.6
20260506132504 58 76 1.7 2.6 0.04 0.14 0.14 96 1005.6
20260506131504 58 80 0.0 1.7 0.05 0.14 0.14 96 1005.6
20260506131004 58 62 0.0 1.7 0.06 0.14 0.14 96 1005.6
20260506130504 58 62 1.7 2.6 0.06 0.14 0.14 96 1005.6
20260506130005 58 47 0.9 2.6 0.06 0.14 0.14 95 1005.7
20260506125504 58 61 1.7 2.6 0.05 0.13 0.13 95 1005.6
20260506125004 58 92 0.9 2.6 0.05 0.12 0.12 95 1005.8
20260506124504 58 64 1.7 2.6 0.05 0.12 0.12 95 1005.9
20260506124004 58 97 0.9 2.6 0.05 0.12 0.12 96 1005.9
20260506123504 58 40 0.0 0.0 0.04 0.11 0.11 95 1006.1
20260506123004 57 40 0.0 0.0 0.03 0.10 0.10 95 1006.3
20260506122004 57 40 0.0 0.0 0.03 0.09 0.09 95 1006.4
20260506121504 57 40 0.0 0.0 0.03 0.09 0.09 95 1006.5
20260506121004 57 40 0.0 0.0 0.02 0.08 0.08 95 1006.5
20260506120504 58 40 0.0 0.0 0.02 0.08 0.08 95 1006.4
20260506120004 58 40 0.0 0.9 0.02 0.08 0.08 95 1006.2
20260506115506 58 40 0.9 2.6 0.02 0.08 0.08 95 1006.1
20260506114004 58 57 0.9 1.7 0.02 0.07 0.07 95 1005.9
20260506113504 58 57 0.0 0.9 0.02 0.07 0.07 95 1006.0
20260506112504 58 57 0.9 0.9 0.02 0.06 0.06 95 1005.9
20260506112004 58 57 0.0 0.9 0.02 0.06 0.06 95 1005.8
20260506111504 57 57 0.0 0.9 0.02 0.06 0.06 95 1005.9
20260506111004 58 57 0.9 1.7 0.02 0.06 0.06 95 1005.9
20260506110504 58 57 0.0 1.7 0.03 0.06 0.06 95 1005.8
20260506110004 58 57 0.0 1.7 0.03 0.06 0.06 95 1005.7
20260506105504 58 69 0.9 2.6 0.03 0.06 0.06 95 1005.7
20260506105004 58 313 0.0 1.7 0.03 0.06 0.06 94 1005.8
20260506104004 58 313 0.0 0.9 0.03 0.05 0.05 94 1005.7
20260506103504 58 313 0.0 0.9 0.03 0.05 0.05 94 1005.7
20260506103004 58 313 0.0 1.7 0.03 0.05 0.05 94 1005.7
20260506102504 58 313 0.0 0.9 0.02 0.04 0.04 94 1005.8
20260506102004 58 313 0.0 0.0 0.02 0.04 0.04 93 1005.9
20260506101504 58 313 0.0 0.0 0.02 0.04 0.04 93 1005.9
20260506100504 58 313 0.0 0.0 0.02 0.03 0.03 93 1005.7
20260506100004 58 313 0.0 0.0 0.02 0.03 0.03 93 1005.6
20260506095004 58 313 0.0 1.7 0.02 0.03 0.03 93 1005.6
20260506094504 58 313 0.0 0.9 0.02 0.02 0.02 93 1005.6
20260506093504 58 313 0.0 0.0 0.02 0.02 0.02 93 1005.7
20260506093004 58 313 0.0 0.0 0.02 0.02 0.02 92 1005.7
20260506092504 58 313 0.0 0.0 0.02 0.02 0.02 92 1005.6
20260506092004 58 313 0.0 0.0 0.02 0.02 0.02 92 1005.7
20260506091504 58 313 0.0 0.0 0.02 0.02 0.02 92 1005.7
20260506091004 58 313 0.0 0.9 0.02 0.02 0.02 91 1005.7
20260506090504 58 313 0.0 0.0 0.02 0.02 0.02 91 1005.6